Year,Month,Day,Hour,Minute,Value (Times are PST for windspeed in km/hr)
2011,03,31,00,00,2.00
2011,03,31,00,01,1.40
2011,03,31,00,02,0.10
2011,03,31,00,03,0.10
2011,03,31,00,04,0.00
2011,03,31,00,05,1.00
2011,03,31,00,06,0.70
2011,03,31,00,07,0.30
2011,03,31,00,08,1.50
2011,03,31,00,09,0.00
2011,03,31,00,10,0.00
2011,03,31,00,11,0.30
2011,03,31,00,12,0.30
2011,03,31,00,13,1.50
2011,03,31,00,14,0.20
2011,03,31,00,15,1.10
2011,03,31,00,16,2.50
2011,03,31,00,17,3.40
2011,03,31,00,18,0.60
2011,03,31,00,19,0.80
2011,03,31,00,20,0.00
2011,03,31,00,21,0.00
2011,03,31,00,22,0.10
2011,03,31,00,23,0.00
2011,03,31,00,24,0.00
2011,03,31,00,25,1.10
2011,03,31,00,26,2.30
2011,03,31,00,27,0.40
2011,03,31,00,28,0.10
2011,03,31,00,29,0.40
2011,03,31,00,30,1.00
2011,03,31,00,31,3.20
2011,03,31,00,32,1.40
2011,03,31,00,33,0.30
2011,03,31,00,34,0.60
2011,03,31,00,35,0.00
2011,03,31,00,36,0.00
2011,03,31,00,37,0.00
2011,03,31,00,38,0.50
2011,03,31,00,39,0.90
2011,03,31,00,40,0.00
2011,03,31,00,41,0.00
2011,03,31,00,42,0.20
2011,03,31,00,43,0.50
2011,03,31,00,44,0.00
2011,03,31,00,45,0.00
2011,03,31,00,46,1.00
2011,03,31,00,47,1.50
2011,03,31,00,48,0.10
2011,03,31,00,49,0.00
2011,03,31,00,50,0.00
2011,03,31,00,51,0.00
2011,03,31,00,52,0.00
2011,03,31,00,53,0.00
2011,03,31,00,54,0.30
2011,03,31,00,55,0.40
2011,03,31,00,56,0.10
2011,03,31,00,57,0.10
2011,03,31,00,58,0.30
2011,03,31,00,59,0.00
2011,03,31,01,00,0.00
2011,03,31,01,01,0.20
2011,03,31,01,02,1.80
2011,03,31,01,03,2.50
2011,03,31,01,04,0.20
2011,03,31,01,05,0.00
2011,03,31,01,06,0.00
2011,03,31,01,07,0.00
2011,03,31,01,08,0.00
2011,03,31,01,09,0.20
2011,03,31,01,10,1.60
2011,03,31,01,11,2.10
2011,03,31,01,12,0.70
2011,03,31,01,13,0.10
2011,03,31,01,14,0.20
2011,03,31,01,15,0.00
2011,03,31,01,16,0.30
2011,03,31,01,17,0.00
2011,03,31,01,18,0.80
2011,03,31,01,19,0.30
2011,03,31,01,20,0.60
2011,03,31,01,21,0.30
2011,03,31,01,22,1.10
2011,03,31,01,23,1.40
2011,03,31,01,24,1.90
2011,03,31,01,25,0.70
2011,03,31,01,26,0.60
2011,03,31,01,27,0.00
2011,03,31,01,28,0.00
2011,03,31,01,29,0.00
2011,03,31,01,30,0.00
2011,03,31,01,31,0.00
2011,03,31,01,32,0.00
2011,03,31,01,33,0.00
2011,03,31,01,34,0.00
2011,03,31,01,35,0.00
2011,03,31,01,36,0.00
2011,03,31,01,37,0.00
2011,03,31,01,38,0.00
2011,03,31,01,39,0.10
2011,03,31,01,40,0.10
2011,03,31,01,41,0.00
2011,03,31,01,42,0.60
2011,03,31,01,43,3.30
2011,03,31,01,44,3.10
2011,03,31,01,45,1.40
2011,03,31,01,46,0.20
2011,03,31,01,47,0.10
2011,03,31,01,48,0.00
2011,03,31,01,49,0.20
2011,03,31,01,50,0.20
2011,03,31,01,51,0.00
2011,03,31,01,52,0.00
2011,03,31,01,53,0.00
2011,03,31,01,54,0.00
2011,03,31,01,55,0.00
2011,03,31,01,56,0.00
2011,03,31,01,57,0.00
2011,03,31,01,58,1.20
2011,03,31,01,59,2.60
2011,03,31,02,00,2.40
2011,03,31,02,01,0.90
2011,03,31,02,02,0.10
2011,03,31,02,03,0.10
2011,03,31,02,04,1.40
2011,03,31,02,05,2.80
2011,03,31,02,06,1.20
2011,03,31,02,07,0.00
2011,03,31,02,08,0.20
2011,03,31,02,09,0.20
2011,03,31,02,10,0.00
2011,03,31,02,11,0.40
2011,03,31,02,12,1.90
2011,03,31,02,13,2.10
2011,03,31,02,14,1.30
2011,03,31,02,15,0.20
2011,03,31,02,16,0.00
2011,03,31,02,17,0.20
2011,03,31,02,18,1.70
2011,03,31,02,19,0.30
2011,03,31,02,20,0.00
2011,03,31,02,21,0.00
2011,03,31,02,22,0.10
2011,03,31,02,23,0.00
2011,03,31,02,24,0.00
2011,03,31,02,25,0.00
2011,03,31,02,26,0.00
2011,03,31,02,27,0.00
2011,03,31,02,28,0.00
2011,03,31,02,29,0.00
2011,03,31,02,30,0.00
2011,03,31,02,31,0.00
2011,03,31,02,32,0.00
2011,03,31,02,33,0.00
2011,03,31,02,34,0.00
2011,03,31,02,35,0.10
2011,03,31,02,36,0.00
2011,03,31,02,37,0.00
2011,03,31,02,38,0.00
2011,03,31,02,39,0.80
2011,03,31,02,40,0.80
2011,03,31,02,41,0.00
2011,03,31,02,42,0.20
2011,03,31,02,43,0.00
2011,03,31,02,44,0.00
2011,03,31,02,45,0.00
2011,03,31,02,46,0.40
2011,03,31,02,47,4.10
2011,03,31,02,48,3.60
2011,03,31,02,49,3.20
2011,03,31,02,50,0.00
2011,03,31,02,51,1.00
2011,03,31,02,52,1.80
2011,03,31,02,53,1.00
2011,03,31,02,54,1.30
2011,03,31,02,55,0.10
2011,03,31,02,56,0.00
2011,03,31,02,57,0.00
2011,03,31,02,58,0.10
2011,03,31,02,59,1.50
2011,03,31,03,00,1.40
2011,03,31,03,01,1.80
2011,03,31,03,02,2.60
2011,03,31,03,03,0.50
2011,03,31,03,06,0.10
2011,03,31,03,07,0.00
2011,03,31,03,08,0.00
2011,03,31,03,09,0.00
2011,03,31,03,10,0.60
2011,03,31,03,11,1.00
2011,03,31,03,12,1.00
2011,03,31,03,13,0.00
2011,03,31,03,14,0.50
2011,03,31,03,15,1.10
2011,03,31,03,17,1.60
2011,03,31,03,18,1.40
2011,03,31,03,19,0.10
2011,03,31,03,20,0.00
2011,03,31,03,21,0.00
2011,03,31,03,22,0.00
2011,03,31,03,23,0.00
2011,03,31,03,24,0.20
2011,03,31,03,25,0.00
2011,03,31,03,26,0.20
2011,03,31,03,27,0.30
2011,03,31,03,28,1.20
2011,03,31,03,29,1.30
2011,03,31,03,30,1.90
2011,03,31,03,31,3.30
2011,03,31,03,32,1.90
2011,03,31,03,33,0.00
2011,03,31,03,34,0.00
2011,03,31,03,35,0.00
2011,03,31,03,36,0.00
2011,03,31,03,37,0.00
2011,03,31,03,38,0.00
2011,03,31,03,39,0.20
2011,03,31,03,40,0.00
2011,03,31,03,41,0.00
2011,03,31,03,42,0.00
2011,03,31,03,43,0.00
2011,03,31,03,44,0.00
2011,03,31,03,45,0.00
2011,03,31,03,46,0.00
2011,03,31,03,47,0.00
2011,03,31,03,48,0.00
2011,03,31,03,49,0.10
2011,03,31,03,50,0.10
2011,03,31,03,51,0.20
2011,03,31,03,52,0.00
2011,03,31,03,53,1.10
2011,03,31,03,54,0.60
2011,03,31,03,55,0.20
2011,03,31,03,56,1.10
2011,03,31,03,57,3.10
2011,03,31,03,58,2.20
2011,03,31,03,59,2.30
2011,03,31,04,00,0.70
2011,03,31,04,01,0.50
2011,03,31,04,02,0.00
2011,03,31,04,05,2.80
2011,03,31,04,06,3.90
2011,03,31,04,07,4.40
2011,03,31,04,08,2.00
2011,03,31,04,09,0.10
2011,03,31,04,10,0.00
2011,03,31,04,13,3.60
2011,03,31,04,14,4.20
2011,03,31,04,15,0.20
2011,03,31,04,16,0.10
2011,03,31,04,17,0.20
2011,03,31,04,18,0.30
2011,03,31,04,19,1.50
2011,03,31,04,20,2.70
2011,03,31,04,21,3.60
2011,03,31,04,22,5.90
2011,03,31,04,23,6.40
2011,03,31,04,24,6.20
2011,03,31,04,25,6.80
2011,03,31,04,26,2.20
2011,03,31,04,27,0.20
2011,03,31,04,28,2.90
2011,03,31,04,29,3.30
2011,03,31,04,30,0.60
2011,03,31,04,31,1.60
2011,03,31,04,32,2.00
2011,03,31,04,33,0.00
2011,03,31,04,34,0.00
2011,03,31,04,35,0.00
2011,03,31,04,36,0.00
2011,03,31,04,37,0.00
2011,03,31,04,38,0.30
2011,03,31,04,39,1.80
2011,03,31,04,40,3.10
2011,03,31,04,41,1.70
2011,03,31,04,42,0.10
2011,03,31,04,43,0.20
2011,03,31,04,44,0.00
2011,03,31,04,45,0.00
2011,03,31,04,46,0.00
2011,03,31,04,47,0.20
2011,03,31,04,48,1.00
2011,03,31,04,49,0.20
2011,03,31,04,50,0.00
2011,03,31,04,51,0.00
2011,03,31,04,52,0.70
2011,03,31,04,53,0.00
2011,03,31,04,54,0.00
2011,03,31,04,55,0.00
2011,03,31,04,56,0.00
2011,03,31,04,57,0.00
2011,03,31,04,58,0.00
2011,03,31,04,59,0.10
2011,03,31,05,00,0.00
2011,03,31,05,01,0.00
2011,03,31,05,02,0.00
2011,03,31,05,03,0.00
2011,03,31,05,04,0.00
2011,03,31,05,05,0.00
2011,03,31,05,06,0.00
2011,03,31,05,07,0.00
2011,03,31,05,08,0.00
2011,03,31,05,09,0.00
2011,03,31,05,10,0.00
2011,03,31,05,11,0.80
2011,03,31,05,12,0.00
2011,03,31,05,16,0.10
2011,03,31,05,17,1.30
2011,03,31,05,18,0.60
2011,03,31,05,19,0.00
2011,03,31,05,20,1.90
2011,03,31,05,21,3.10
2011,03,31,05,22,2.70
2011,03,31,05,23,1.90
2011,03,31,05,24,1.60
2011,03,31,05,25,1.60
2011,03,31,05,26,0.80
2011,03,31,05,27,0.10
2011,03,31,05,28,0.10
2011,03,31,05,29,0.10
2011,03,31,05,30,0.00
2011,03,31,05,31,0.00
2011,03,31,05,34,0.00
2011,03,31,05,35,1.50
2011,03,31,05,36,3.00
2011,03,31,05,37,3.00
2011,03,31,05,38,2.40
2011,03,31,05,39,1.70
2011,03,31,05,40,1.80
2011,03,31,05,41,2.00
2011,03,31,05,42,2.60
2011,03,31,05,43,3.70
2011,03,31,05,44,4.10
2011,03,31,05,45,4.30
2011,03,31,05,46,3.20
2011,03,31,05,47,2.40
2011,03,31,05,48,0.30
2011,03,31,05,49,0.40
2011,03,31,05,50,0.10
2011,03,31,05,51,0.60
2011,03,31,05,52,0.30
2011,03,31,05,53,0.00
2011,03,31,05,54,0.00
2011,03,31,05,55,0.00
2011,03,31,05,56,0.00
2011,03,31,05,57,0.80
2011,03,31,05,58,0.70
2011,03,31,05,59,0.30
2011,03,31,06,00,0.00
2011,03,31,06,01,0.50
2011,03,31,06,02,0.60
2011,03,31,06,03,0.70
2011,03,31,06,04,0.10
2011,03,31,06,05,0.00
2011,03,31,06,06,0.10
2011,03,31,06,07,0.30
2011,03,31,06,08,3.40
2011,03,31,06,09,5.10
2011,03,31,06,10,4.70
2011,03,31,06,11,0.40
2011,03,31,06,12,0.70
2011,03,31,06,13,1.50
2011,03,31,06,14,0.60
2011,03,31,06,15,1.30
2011,03,31,06,16,2.30
2011,03,31,06,17,4.60
2011,03,31,06,18,1.30
2011,03,31,06,19,0.10
2011,03,31,06,20,1.30
2011,03,31,06,21,1.60
2011,03,31,06,22,3.20
2011,03,31,06,23,1.50
2011,03,31,06,24,0.50
2011,03,31,06,25,0.50
2011,03,31,06,26,1.00
2011,03,31,06,27,0.30
2011,03,31,06,28,1.00
2011,03,31,06,29,3.90
2011,03,31,06,30,2.10
2011,03,31,06,31,0.20
2011,03,31,06,32,1.20
2011,03,31,06,33,0.60
2011,03,31,06,34,0.00
2011,03,31,06,35,0.10
2011,03,31,06,36,0.10
2011,03,31,06,37,0.10
2011,03,31,06,38,0.00
2011,03,31,06,39,0.50
2011,03,31,06,40,0.50
2011,03,31,06,41,0.60
2011,03,31,06,42,0.00
2011,03,31,06,43,0.00
2011,03,31,06,44,0.00
2011,03,31,06,45,0.50
2011,03,31,06,46,0.70
2011,03,31,06,47,0.00
2011,03,31,06,48,0.60
2011,03,31,06,49,0.30
2011,03,31,06,50,0.20
2011,03,31,06,51,1.00
2011,03,31,06,52,0.00
2011,03,31,06,53,0.00
2011,03,31,06,54,0.10
2011,03,31,06,55,0.00
2011,03,31,06,56,0.00
2011,03,31,06,57,1.30
2011,03,31,06,58,3.60
2011,03,31,06,59,5.30
2011,03,31,07,00,6.80
2011,03,31,07,01,5.70
2011,03,31,07,02,5.90
2011,03,31,07,03,4.00
2011,03,31,07,04,6.20
2011,03,31,07,05,8.40
2011,03,31,07,06,7.20
2011,03,31,07,07,8.40
2011,03,31,07,08,8.50
2011,03,31,07,09,8.20
2011,03,31,07,10,7.60
2011,03,31,07,11,8.10
2011,03,31,07,12,9.30
2011,03,31,07,13,10.90
2011,03,31,07,14,9.70
2011,03,31,07,15,8.40
2011,03,31,07,16,6.70
2011,03,31,07,17,8.90
2011,03,31,07,18,9.20
2011,03,31,07,19,6.20
2011,03,31,07,20,6.50
2011,03,31,07,21,7.20
2011,03,31,07,22,3.60
2011,03,31,07,23,2.40
2011,03,31,07,24,1.40
2011,03,31,07,25,4.20
2011,03,31,07,26,3.40
2011,03,31,07,27,2.60
2011,03,31,07,28,3.60
2011,03,31,07,29,1.90
2011,03,31,07,30,2.20
2011,03,31,07,31,2.40
2011,03,31,07,32,1.40
2011,03,31,07,33,1.80
2011,03,31,07,34,2.50
2011,03,31,07,35,2.50
2011,03,31,07,36,2.20
2011,03,31,07,37,2.70
2011,03,31,07,38,3.50
2011,03,31,07,39,2.40
2011,03,31,07,40,0.30
2011,03,31,07,41,0.40
2011,03,31,07,42,1.90
2011,03,31,07,43,1.00
2011,03,31,07,44,0.00
2011,03,31,07,45,1.40
2011,03,31,07,46,3.00
2011,03,31,07,47,2.40
2011,03,31,07,48,0.30
2011,03,31,07,49,2.10
2011,03,31,07,50,1.40
2011,03,31,07,51,5.30
2011,03,31,07,52,3.20
2011,03,31,07,53,4.20
2011,03,31,07,54,5.50
2011,03,31,07,55,2.80
2011,03,31,07,56,2.30
2011,03,31,07,57,2.90
2011,03,31,07,58,2.70
2011,03,31,07,59,5.50
2011,03,31,08,00,2.80
2011,03,31,08,01,4.60
2011,03,31,08,02,2.20
2011,03,31,08,03,2.60
2011,03,31,08,04,2.70
2011,03,31,08,05,2.80
2011,03,31,08,06,2.70
2011,03,31,08,07,1.40
2011,03,31,08,08,0.30
2011,03,31,08,09,2.80
2011,03,31,08,10,0.20
2011,03,31,08,11,0.70
2011,03,31,08,12,3.60
2011,03,31,08,13,1.70
2011,03,31,08,14,1.00
2011,03,31,08,15,3.90
2011,03,31,08,16,1.80
2011,03,31,08,17,5.30
2011,03,31,08,18,6.70
2011,03,31,08,19,8.10
2011,03,31,08,20,7.40
2011,03,31,08,21,4.70
2011,03,31,08,22,6.10
2011,03,31,08,23,7.80
2011,03,31,08,24,6.50
2011,03,31,08,25,2.00
2011,03,31,08,26,0.20
2011,03,31,08,27,3.00
2011,03,31,08,28,3.40
2011,03,31,08,29,0.50
2011,03,31,08,30,0.20
2011,03,31,08,31,0.30
2011,03,31,08,32,2.00
2011,03,31,08,33,3.90
2011,03,31,08,34,0.50
2011,03,31,08,35,0.90
2011,03,31,08,36,0.40
2011,03,31,08,37,0.20
2011,03,31,08,38,0.00
2011,03,31,08,39,0.00
2011,03,31,08,40,1.40
2011,03,31,08,41,2.70
2011,03,31,08,42,3.10
2011,03,31,08,43,2.80
2011,03,31,08,44,0.20
2011,03,31,08,45,0.60
2011,03,31,08,46,0.60
2011,03,31,08,47,0.50
2011,03,31,08,48,0.50
2011,03,31,08,49,1.10
2011,03,31,08,50,2.40
2011,03,31,08,51,6.00
2011,03,31,08,52,1.90
2011,03,31,08,53,0.40
2011,03,31,08,54,1.00
2011,03,31,08,55,0.00
2011,03,31,08,56,0.30
2011,03,31,08,57,0.20
2011,03,31,08,58,0.00
2011,03,31,08,59,0.00
2011,03,31,09,00,0.90
2011,03,31,09,01,1.40
2011,03,31,09,02,3.60
2011,03,31,09,03,3.70
2011,03,31,09,04,3.90
2011,03,31,09,05,2.00
2011,03,31,09,06,3.10
2011,03,31,09,07,0.80
2011,03,31,09,08,0.90
2011,03,31,09,09,0.70
2011,03,31,09,10,1.10
2011,03,31,09,11,0.40
2011,03,31,09,12,0.60
2011,03,31,09,13,0.60
2011,03,31,09,14,1.80
2011,03,31,09,15,2.30
2011,03,31,09,16,2.00
2011,03,31,09,17,0.30
2011,03,31,09,18,0.90
2011,03,31,09,19,0.70
2011,03,31,09,20,1.10
2011,03,31,09,21,1.10
2011,03,31,09,22,0.00
2011,03,31,09,23,0.70
2011,03,31,09,24,0.10
2011,03,31,09,25,0.00
2011,03,31,09,26,0.00
2011,03,31,09,27,0.00
2011,03,31,09,28,0.00
2011,03,31,09,29,0.60
2011,03,31,09,30,1.10
2011,03,31,09,31,0.00
2011,03,31,09,32,0.00
2011,03,31,09,33,0.00
2011,03,31,09,34,0.50
2011,03,31,09,35,1.80
2011,03,31,09,36,1.70
2011,03,31,09,37,1.50
2011,03,31,09,38,0.00
2011,03,31,09,39,0.10
2011,03,31,09,40,0.00
2011,03,31,09,41,2.40
2011,03,31,09,42,2.80
2011,03,31,09,43,1.30
2011,03,31,09,44,2.30
2011,03,31,09,45,2.60
2011,03,31,09,46,4.30
2011,03,31,09,47,2.80
2011,03,31,09,48,1.80
2011,03,31,09,49,2.50
2011,03,31,09,50,3.70
2011,03,31,09,51,3.50
2011,03,31,09,52,3.40
2011,03,31,09,53,2.50
2011,03,31,09,54,3.90
2011,03,31,09,55,4.20
2011,03,31,09,56,2.70
2011,03,31,09,57,0.80
2011,03,31,09,58,2.50
2011,03,31,09,59,1.30
2011,03,31,10,00,2.10
2011,03,31,10,01,2.60
2011,03,31,10,02,3.30
2011,03,31,10,03,1.10
2011,03,31,10,04,3.30
2011,03,31,10,05,2.40
2011,03,31,10,06,1.90
2011,03,31,10,07,1.10
2011,03,31,10,08,0.80
2011,03,31,10,09,2.60
2011,03,31,10,10,4.70
2011,03,31,10,11,4.30
2011,03,31,10,12,3.40
2011,03,31,10,13,5.40
2011,03,31,10,14,2.40
2011,03,31,10,15,3.20
2011,03,31,10,16,2.30
2011,03,31,10,17,8.10
2011,03,31,10,18,8.00
2011,03,31,10,19,5.40
2011,03,31,10,20,3.50
2011,03,31,10,21,4.00
2011,03,31,10,22,3.80
2011,03,31,10,23,3.90
2011,03,31,10,24,1.50
2011,03,31,10,25,4.70
2011,03,31,10,26,3.20
2011,03,31,10,27,5.10
2011,03,31,10,28,3.20
2011,03,31,10,29,2.50
2011,03,31,10,30,3.90
2011,03,31,10,31,2.30
2011,03,31,10,32,2.70
2011,03,31,10,33,3.20
2011,03,31,10,34,4.50
2011,03,31,10,35,4.40
2011,03,31,10,36,4.00
2011,03,31,10,37,2.90
2011,03,31,10,38,2.70
2011,03,31,10,39,1.90
2011,03,31,10,40,3.40
2011,03,31,10,41,3.10
2011,03,31,10,42,3.10
2011,03,31,10,43,4.50
2011,03,31,10,44,1.50
2011,03,31,10,45,1.10
2011,03,31,10,46,3.00
2011,03,31,10,47,5.60
2011,03,31,10,48,4.10
2011,03,31,10,49,3.90
2011,03,31,10,50,6.40
2011,03,31,10,51,5.10
2011,03,31,10,52,3.70
2011,03,31,10,53,4.70
2011,03,31,10,54,5.70
2011,03,31,10,55,5.60
2011,03,31,10,56,5.40
2011,03,31,10,57,7.70
2011,03,31,10,58,8.20
2011,03,31,10,59,10.00
2011,03,31,11,00,5.70
2011,03,31,11,01,6.50
2011,03,31,11,02,7.60
2011,03,31,11,03,7.20
2011,03,31,11,04,9.00
2011,03,31,11,05,8.70
2011,03,31,11,06,8.80
2011,03,31,11,07,5.10
2011,03,31,11,08,8.70
2011,03,31,11,09,5.40
2011,03,31,11,10,5.80
2011,03,31,11,11,5.40
2011,03,31,11,12,5.30
2011,03,31,11,13,4.70
2011,03,31,11,14,4.80
2011,03,31,11,15,2.90
2011,03,31,11,16,4.30
2011,03,31,11,17,5.40
2011,03,31,11,18,3.50
2011,03,31,11,19,9.50
2011,03,31,11,20,6.50
2011,03,31,11,21,4.70
2011,03,31,11,22,4.60
2011,03,31,11,23,4.70
2011,03,31,11,24,7.00
2011,03,31,11,25,3.10
2011,03,31,11,26,5.40
2011,03,31,11,27,6.00
2011,03,31,11,28,4.50
2011,03,31,11,29,3.70
2011,03,31,11,30,1.70
2011,03,31,11,31,8.10
2011,03,31,11,32,3.90
2011,03,31,11,33,5.10
2011,03,31,11,34,5.40
2011,03,31,11,35,4.10
2011,03,31,11,36,6.60
2011,03,31,11,37,7.80
2011,03,31,11,38,8.50
2011,03,31,11,39,9.30
2011,03,31,11,40,5.70
2011,03,31,11,41,8.00
2011,03,31,11,42,8.00
2011,03,31,11,43,4.30
2011,03,31,11,44,10.00
2011,03,31,11,45,7.40
2011,03,31,11,46,9.60
2011,03,31,11,47,6.70
2011,03,31,11,48,7.50
2011,03,31,11,49,8.60
2011,03,31,11,50,10.50
2011,03,31,11,51,9.40
2011,03,31,11,52,9.30
2011,03,31,11,53,10.70
2011,03,31,11,54,12.50
2011,03,31,11,55,14.70
2011,03,31,11,56,9.20
2011,03,31,11,57,9.70
2011,03,31,11,58,10.20
2011,03,31,11,59,8.40
2011,03,31,12,00,7.60
2011,03,31,12,01,8.10
2011,03,31,12,02,7.20
2011,03,31,12,03,6.40
2011,03,31,12,04,8.50
2011,03,31,12,05,10.20
2011,03,31,12,06,10.60
2011,03,31,12,07,6.20
2011,03,31,12,08,9.30
2011,03,31,12,09,6.30
2011,03,31,12,10,8.50
2011,03,31,12,11,5.30
2011,03,31,12,12,4.80
2011,03,31,12,13,6.70
2011,03,31,12,14,5.50
2011,03,31,12,15,3.50
2011,03,31,12,16,6.80
2011,03,31,12,17,5.70
2011,03,31,12,18,3.90
2011,03,31,12,19,2.20
2011,03,31,12,20,2.70
2011,03,31,12,21,4.10
2011,03,31,12,22,5.10
2011,03,31,12,23,6.80
2011,03,31,12,24,6.20
2011,03,31,12,25,6.30
2011,03,31,12,26,6.90
2011,03,31,12,27,4.70
2011,03,31,12,28,4.70
2011,03,31,12,29,5.10
2011,03,31,12,30,5.60
2011,03,31,12,31,5.80
2011,03,31,12,32,3.90
2011,03,31,12,33,3.20
2011,03,31,12,34,3.20
2011,03,31,12,35,6.40
2011,03,31,12,36,7.60
2011,03,31,12,37,3.80
2011,03,31,12,38,8.10
2011,03,31,12,39,5.80
2011,03,31,12,40,5.10
2011,03,31,12,41,2.80
2011,03,31,12,42,3.50
2011,03,31,12,43,8.10
2011,03,31,12,44,6.60
2011,03,31,12,45,8.80
2011,03,31,12,46,5.70
2011,03,31,12,47,5.50
2011,03,31,12,48,4.70
2011,03,31,12,49,6.30
2011,03,31,12,50,7.30
2011,03,31,12,51,9.00
2011,03,31,12,52,6.20
2011,03,31,12,53,6.10
2011,03,31,12,54,5.10
2011,03,31,12,55,2.80
2011,03,31,12,56,1.50
2011,03,31,12,57,3.40
2011,03,31,12,58,3.10
2011,03,31,12,59,3.20
2011,03,31,13,00,5.40
2011,03,31,13,01,8.40
2011,03,31,13,02,6.60
2011,03,31,13,03,3.90
2011,03,31,13,04,6.00
2011,03,31,13,05,8.40
2011,03,31,13,06,3.30
2011,03,31,13,07,5.10
2011,03,31,13,08,3.30
2011,03,31,13,09,3.80
2011,03,31,13,10,6.80
2011,03,31,13,11,6.00
2011,03,31,13,12,6.30
2011,03,31,13,13,6.80
2011,03,31,13,14,7.30
2011,03,31,13,15,11.70
2011,03,31,13,16,7.80
2011,03,31,13,17,12.10
2011,03,31,13,20,7.30
2011,03,31,13,21,10.30
2011,03,31,13,22,8.10
2011,03,31,13,23,8.20
2011,03,31,13,24,4.70
2011,03,31,13,25,3.50
2011,03,31,13,26,8.40
2011,03,31,13,27,5.90
2011,03,31,13,28,8.50
2011,03,31,13,29,9.20
2011,03,31,13,30,5.60
2011,03,31,13,31,7.40
2011,03,31,13,32,9.30
2011,03,31,13,33,6.80
2011,03,31,13,34,8.50
2011,03,31,13,35,6.20
2011,03,31,13,36,8.90
2011,03,31,13,39,5.60
2011,03,31,13,40,8.90
2011,03,31,13,41,6.40
2011,03,31,13,42,4.70
2011,03,31,13,43,8.90
2011,03,31,13,44,10.90
2011,03,31,13,45,6.10
2011,03,31,13,46,8.20
2011,03,31,13,47,6.80
2011,03,31,13,48,12.30
2011,03,31,13,49,7.80
2011,03,31,13,50,4.50
2011,03,31,13,51,5.00
2011,03,31,13,52,4.90
2011,03,31,13,53,5.50
2011,03,31,13,54,5.80
2011,03,31,13,55,8.00
2011,03,31,13,56,6.70
2011,03,31,13,57,7.60
2011,03,31,13,58,3.90
2011,03,31,13,59,6.60
2011,03,31,14,00,8.00
2011,03,31,14,01,10.90
2011,03,31,14,02,7.20
2011,03,31,14,03,9.30
2011,03,31,14,04,5.80
2011,03,31,14,05,8.20
2011,03,31,14,06,8.40
2011,03,31,14,07,5.80
2011,03,31,14,08,10.90
2011,03,31,14,09,10.30
2011,03,31,14,10,7.00
2011,03,31,14,11,9.70
2011,03,31,14,12,9.60
2011,03,31,14,13,9.90
2011,03,31,14,14,7.00
2011,03,31,14,15,5.90
2011,03,31,14,16,7.10
2011,03,31,14,17,4.50
2011,03,31,14,18,3.70
2011,03,31,14,19,8.00
2011,03,31,14,20,6.50
2011,03,31,14,21,4.20
2011,03,31,14,22,3.50
2011,03,31,14,23,6.70
2011,03,31,14,24,7.40
2011,03,31,14,25,5.50
2011,03,31,14,26,6.40
2011,03,31,14,27,4.30
2011,03,31,14,28,4.30
2011,03,31,14,29,3.20
2011,03,31,14,30,5.10
2011,03,31,14,31,4.90
2011,03,31,14,32,3.90
2011,03,31,14,33,2.90
2011,03,31,14,34,5.00
2011,03,31,14,35,7.10
2011,03,31,14,36,4.20
2011,03,31,14,37,7.30
2011,03,31,14,38,4.70
2011,03,31,14,39,5.40
2011,03,31,14,40,6.40
2011,03,31,14,41,6.60
2011,03,31,14,42,5.90
2011,03,31,14,43,5.10
2011,03,31,14,44,4.90
2011,03,31,14,45,6.80
2011,03,31,14,46,7.80
2011,03,31,14,47,6.30
2011,03,31,14,48,6.80
2011,03,31,14,49,5.40
2011,03,31,14,50,8.50
2011,03,31,14,51,4.90
2011,03,31,14,52,6.20
2011,03,31,14,53,9.30
2011,03,31,14,54,9.40
2011,03,31,14,55,6.60
2011,03,31,14,56,9.50
2011,03,31,14,57,7.40
2011,03,31,14,58,6.40
2011,03,31,14,59,4.60
2011,03,31,15,00,7.60
2011,03,31,15,01,4.10
2011,03,31,15,02,4.30
2011,03,31,15,03,10.50
2011,03,31,15,04,5.00
2011,03,31,15,05,3.60
2011,03,31,15,06,3.90
2011,03,31,15,07,6.00
2011,03,31,15,08,3.80
2011,03,31,15,09,4.70
2011,03,31,15,10,6.30
2011,03,31,15,11,3.30
2011,03,31,15,12,4.70
2011,03,31,15,13,5.10
2011,03,31,15,14,7.50
2011,03,31,15,15,5.20
2011,03,31,15,16,5.30
2011,03,31,15,17,3.70
2011,03,31,15,18,5.00
2011,03,31,15,19,3.90
2011,03,31,15,20,6.40
2011,03,31,15,21,3.50
2011,03,31,15,22,2.70
2011,03,31,15,23,5.90
2011,03,31,15,24,3.30
2011,03,31,15,25,6.20
2011,03,31,15,26,3.70
2011,03,31,15,27,4.70
2011,03,31,15,28,3.30
2011,03,31,15,29,3.10
2011,03,31,15,30,4.20
2011,03,31,15,31,3.60
2011,03,31,15,32,5.50
2011,03,31,15,33,5.20
2011,03,31,15,34,2.40
2011,03,31,15,35,3.10
2011,03,31,15,36,1.20
2011,03,31,15,37,3.40
2011,03,31,15,38,3.10
2011,03,31,15,39,4.90
2011,03,31,15,40,1.80
2011,03,31,15,41,3.10
2011,03,31,15,42,6.00
2011,03,31,15,43,6.20
2011,03,31,15,44,5.50
2011,03,31,15,45,3.30
2011,03,31,15,46,4.30
2011,03,31,15,47,3.10
2011,03,31,15,48,2.90
2011,03,31,15,49,3.90
2011,03,31,15,50,4.40
2011,03,31,15,51,1.80
2011,03,31,15,52,3.20
2011,03,31,15,53,2.10
2011,03,31,15,54,2.60
2011,03,31,15,55,5.30
2011,03,31,15,56,3.10
2011,03,31,15,57,4.00
2011,03,31,15,58,5.10
2011,03,31,15,59,3.30
2011,03,31,16,00,2.10
2011,03,31,16,01,2.70
2011,03,31,16,02,2.30
2011,03,31,16,03,2.60
2011,03,31,16,04,4.40
2011,03,31,16,05,5.60
2011,03,31,16,06,4.70
2011,03,31,16,07,5.60
2011,03,31,16,08,6.00
2011,03,31,16,09,5.10
2011,03,31,16,10,3.50
2011,03,31,16,11,3.90
2011,03,31,16,12,2.70
2011,03,31,16,16,2.90
2011,03,31,16,17,4.90
2011,03,31,16,18,5.40
2011,03,31,16,19,6.80
2011,03,31,16,20,6.30
2011,03,31,16,21,6.80
2011,03,31,16,22,6.80
2011,03,31,16,23,7.30
2011,03,31,16,24,6.10
2011,03,31,16,25,4.10
2011,03,31,16,26,3.00
2011,03,31,16,27,3.60
2011,03,31,16,28,2.40
2011,03,31,16,29,4.60
2011,03,31,16,30,8.50
2011,03,31,16,31,5.00
2011,03,31,16,32,3.80
2011,03,31,16,33,4.70
2011,03,31,16,34,7.10
2011,03,31,16,35,5.20
2011,03,31,16,36,3.00
2011,03,31,16,37,2.40
2011,03,31,16,38,0.80
2011,03,31,16,39,0.60
2011,03,31,16,40,4.20
2011,03,31,16,41,7.10
2011,03,31,16,42,2.20
2011,03,31,16,43,10.60
2011,03,31,16,44,8.40
2011,03,31,16,45,9.20
2011,03,31,16,46,7.00
2011,03,31,16,47,5.70
2011,03,31,16,48,5.80
2011,03,31,16,49,6.10
2011,03,31,16,50,2.00
2011,03,31,16,51,1.00
2011,03,31,16,52,3.20
2011,03,31,16,53,4.70
2011,03,31,16,54,5.60
2011,03,31,16,55,7.40
2011,03,31,16,56,4.50
2011,03,31,16,57,2.70
2011,03,31,16,58,3.10
2011,03,31,16,59,2.60
2011,03,31,17,00,5.60
2011,03,31,17,01,9.10
2011,03,31,17,02,6.70
2011,03,31,17,03,8.30
2011,03,31,17,04,9.00
2011,03,31,17,05,8.80
2011,03,31,17,06,7.60
2011,03,31,17,07,6.90
2011,03,31,17,08,4.70
2011,03,31,17,09,2.30
2011,03,31,17,10,3.50
2011,03,31,17,11,5.40
2011,03,31,17,12,4.90
2011,03,31,17,13,1.90
2011,03,31,17,14,3.10
2011,03,31,17,15,9.30
2011,03,31,17,16,9.00
2011,03,31,17,17,11.50
2011,03,31,17,18,5.30
2011,03,31,17,19,4.80
2011,03,31,17,20,1.90
2011,03,31,17,21,1.50
2011,03,31,17,22,6.10
2011,03,31,17,23,3.40
2011,03,31,17,24,5.60
2011,03,31,17,25,6.40
2011,03,31,17,26,7.00
2011,03,31,17,27,5.60
2011,03,31,17,28,6.30
2011,03,31,17,29,8.30
2011,03,31,17,30,3.10
2011,03,31,17,31,1.00
2011,03,31,17,32,3.80
2011,03,31,17,33,9.50
2011,03,31,17,34,3.30
2011,03,31,17,35,3.20
2011,03,31,17,36,5.20
2011,03,31,17,37,2.60
2011,03,31,17,38,5.50
2011,03,31,17,39,9.50
2011,03,31,17,40,6.10
2011,03,31,17,41,8.00
2011,03,31,17,42,8.80
2011,03,31,17,43,5.10
2011,03,31,17,44,6.20
2011,03,31,17,45,6.10
2011,03,31,17,46,7.60
2011,03,31,17,47,11.30
2011,03,31,17,48,14.40
2011,03,31,17,49,8.70
2011,03,31,17,50,12.90
2011,03,31,17,51,11.50
2011,03,31,17,52,11.00
2011,03,31,17,53,10.90
2011,03,31,17,54,9.40
2011,03,31,17,55,11.20
2011,03,31,17,56,13.40
2011,03,31,17,57,12.60
2011,03,31,17,58,8.70
2011,03,31,17,59,11.60
2011,03,31,18,00,8.20
2011,03,31,18,01,16.50
2011,03,31,18,02,11.90
2011,03,31,18,03,12.10
2011,03,31,18,04,10.30
2011,03,31,18,05,7.90
2011,03,31,18,06,17.10
2011,03,31,18,07,9.30
2011,03,31,18,08,11.40
2011,03,31,18,09,10.70
2011,03,31,18,10,14.20
2011,03,31,18,11,10.90
2011,03,31,18,12,13.20
2011,03,31,18,13,14.00
2011,03,31,18,14,10.20
2011,03,31,18,15,11.70
2011,03,31,18,16,13.30
2011,03,31,18,17,18.10
2011,03,31,18,18,13.40
2011,03,31,18,19,16.00
2011,03,31,18,20,10.10
2011,03,31,18,21,8.40
2011,03,31,18,22,14.00
2011,03,31,18,23,14.00